Wetbulb
63.12 62.41 61.94 61.05 60.27 59.56 58.71 58.48 58.59 58.40 58.09 59.22 59.76 59.78 59.97 60.02 59.74 59.89 59.26 58.69 58.46 58.39
62.10 63.27 60.77 59.91 60.29 59.43 58.92 58.04 58.48 58.61 58.04 59.03 59.29 59.30 59.58 59.69 59.27 59.34 59.30 58.97 58.69 58.37
60.94 61.60 61.03 60.88 59.75 58.69 58.21 58.58 58.31 58.20 58.10 58.39 58.57 59.00 58.34 58.29 59.34 58.97 59.25 58.78 58.16 57.95
59.61 60.58 60.58 60.76 59.47 58.49 58.15 58.62 58.47 58.07 57.46 57.28 57.32 57.32 58.10 57.28 57.58 57.74 57.90 57.92 57.68 57.30
58.96 59.89 60.08 60.14 59.80 58.79 58.09 58.67 58.47 57.73 57.22 56.94 56.80 56.88 56.74 56.70 56.98 56.84 56.62 56.96 57.00 56.68
58.59 59.09 59.72 60.04 59.98 59.59 58.65 58.31 58.75 57.63 56.90 56.72 56.80 56.60 56.82 56.70 56.48 56.60 56.74 56.66 56.28 56.32
57.66 58.25 59.34 59.85 60.06 60.01 59.26 58.03 58.14 57.54 57.06 56.63 56.32 56.40 56.58 56.18 55.98 55.94 56.26 56.44 56.12 56.18
46.61 52.11 53.85 54.86 59.21 59.75 59.37 58.97 58.27 57.69 57.15 56.04 54.35 50.12 55.20 55.58 55.22 54.41 54.26 55.03 54.77 55.25
41.11 42.00 43.63 45.28 45.96 48.67 47.36 46.29 44.80 44.34 43.59 41.43 39.17 36.55 37.98 46.53 55.18 55.05 54.57 53.95 54.53 55.09
38.68 38.78 39.32 39.06 38.82 38.83 39.68 39.16 37.72 37.27 37.06 36.61 37.15 36.76 37.89 38.30 48.46 46.18 43.87 43.24 46.59 44.20
37.19 37.16 37.15 37.21 37.27 35.05 35.45 35.16 34.28 34.17 35.09 36.02 37.52 36.89 37.23 36.57 36.86 35.07 34.57 34.92 35.64 35.83
33.72 34.99 35.51 34.84 35.77 35.56 33.42 32.41 31.91 32.35 32.22 33.18 34.83 35.83 35.69 35.02 33.70 32.04 31.58 32.16 33.12 33.09
32.65 32.54 32.73 32.89 33.61 34.17 33.06 31.69 31.40 30.60 30.91 31.97 32.11 34.65 35.67 35.14 33.51 31.31 30.73 31.35 31.60 32.40
31.25 31.03 32.00 32.23 32.94 32.91 32.46 32.20 31.23 29.95 29.88 30.38 31.24 32.06 33.66 33.67 32.51 30.87 29.72 29.48 29.84 31.34
MSLP
1002.65 1003.25 1003.67 1004.41 1005.42 1006.32 1007.19 1007.72 1008.38 1008.88 1009.41 1009.53 1009.53 1009.81 1010.09 1010.30 1010.76 1011.39 1012.06 1012.70 1013.41 1014.06
1002.05 1002.58 1003.07 1003.86 1004.84 1005.79 1006.67 1007.35 1007.86 1008.52 1008.99 1009.19 1009.11 1009.43 1009.77 1010.11 1010.33 1010.81 1011.66 1012.37 1013.13 1013.91
1001.84 1002.09 1002.53 1003.25 1004.30 1005.33 1006.18 1006.85 1007.69 1008.21 1008.58 1008.89 1008.85 1009.22 1009.58 1009.99 1010.16 1010.47 1011.17 1011.99 1012.91 1013.73
1001.93 1002.12 1002.49 1002.96 1004.09 1005.01 1005.79 1006.63 1007.44 1007.87 1008.27 1008.63 1008.65 1009.00 1009.48 1009.91 1010.18 1010.35 1011.01 1011.89 1012.67 1013.33
1002.15 1002.14 1002.38 1002.89 1003.91 1004.76 1005.60 1006.43 1007.19 1007.67 1008.03 1008.46 1008.53 1008.75 1009.50 1009.78 1010.31 1010.52 1011.07 1011.77 1012.50 1012.98
1002.42 1002.64 1002.56 1003.00 1003.57 1004.60 1005.51 1006.30 1006.93 1007.39 1007.83 1008.15 1008.36 1008.49 1009.30 1009.78 1010.04 1010.73 1011.10 1011.51 1012.00 1012.46
1003.48 1003.31 1003.31 1002.91 1003.36 1004.41 1005.44 1006.03 1006.71 1007.22 1007.71 1008.08 1008.41 1008.48 1008.99 1009.63 1009.99 1010.49 1010.98 1011.37 1011.79 1012.17
1005.29 1004.35 1003.67 1003.86 1003.83 1004.70 1005.52 1006.01 1006.63 1007.09 1007.83 1008.24 1008.56 1009.07 1008.99 1009.37 1009.87 1010.41 1010.92 1011.35 1011.64 1011.99
1007.25 1005.97 1005.77 1005.91 1005.67 1006.34 1006.96 1007.35 1007.77 1008.37 1009.05 1009.59 1010.03 1010.27 1009.93 1009.53 1009.67 1010.23 1010.51 1010.89 1011.39 1011.67
1009.27 1008.05 1007.65 1007.49 1007.56 1008.21 1008.76 1009.30 1009.52 1010.13 1010.55 1011.10 1010.93 1010.55 1010.38 1010.09 1010.21 1010.67 1011.41 1011.88 1011.97 1012.36
1011.46 1009.84 1009.25 1009.10 1009.55 1009.42 1010.17 1011.00 1011.25 1011.65 1011.84 1012.05 1011.71 1011.08 1010.84 1010.91 1011.47 1012.13 1012.85 1013.23 1013.41 1013.61
1013.44 1012.34 1011.31 1011.03 1011.45 1011.16 1011.26 1012.12 1012.38 1012.90 1013.14 1013.23 1013.22 1012.51 1012.11 1011.95 1012.49 1013.28 1013.95 1014.38 1014.34 1014.49
1015.11 1014.06 1013.77 1012.19 1013.19 1012.15 1012.49 1012.89 1013.49 1014.12 1014.16 1014.80 1014.22 1013.88 1013.47 1013.37 1013.39 1013.89 1014.61 1015.23 1015.15 1015.28
1016.71 1014.46 1015.24 1014.04 1014.75 1013.57 1013.89 1013.73 1014.07 1014.89 1015.16 1015.21 1015.76 1015.32 1014.48 1014.73 1014.71 1014.74 1014.94 1015.81 1016.45 1016.57
Wind_Speed
13 9 10 12 9 9 8 7 9 8 9 9 10 10 9 9 9 12 12 14 8 5
8 13 9 12 12 10 9 8 10 9 9 8 8 9 9 7 12 9 10 11 10 6
6 6 10 11 12 12 9 10 10 9 9 8 7 8 8 5 10 14 11 8 10 9
2 6 11 11 11 11 11 11 11 10 9 9 9 7 8 7 8 12 11 10 11 10
1 5 11 12 12 12 11 10 10 10 10 10 8 9 7 8 6 9 11 11 10 9
5 3 8 11 11 12 11 12 10 9 9 9 9 10 9 9 9 8 9 10 11 9
3 4 6 9 10 11 10 11 9 10 9 10 10 10 10 9 9 9 8 7 9 9
13 10 9 10 6 9 8 9 10 10 7 5 4 1 9 10 9 9 8 8 8 8
14 13 13 12 14 12 10 11 13 11 9 9 6 8 5 3 8 9 9 9 11 9
14 13 14 14 15 15 14 13 13 13 11 10 6 7 3 3 6 8 8 7 5 7
14 13 14 15 13 17 13 13 13 13 12 10 10 16 16 17 12 12 12 10 9 8
15 14 14 15 12 13 15 13 14 12 14 12 12 15 14 14 12 13 13 12 12 9
12 12 13 14 11 12 14 14 12 14 15 17 13 19 15 11 8 12 10 9 12 19
11 14 10 12 9 11 11 12 14 14 13 15 14 15 23 17 9 8 10 10 9 9
Wind_Direction
184 180 178 177 164 168 177 169 169 178 199 200 198 190 189 188 179 172 172 170 168 149
168 187 165 161 156 160 162 162 166 179 181 183 172 173 175 191 182 172 163 165 167 167
178 187 169 149 147 153 150 153 169 178 170 172 154 165 152 161 173 182 178 166 160 179
193 176 171 142 145 150 151 161 176 177 172 180 165 142 163 150 155 153 154 157 167 176
154 167 156 145 146 149 156 164 178 172 172 182 170 152 162 156 170 163 163 168 173 181
84 115 149 146 144 147 154 168 171 169 177 179 182 163 173 179 169 179 184 181 188 186
344 108 175 137 141 142 156 157 166 169 177 184 187 178 174 179 178 182 190 186 196 186
4 29 52 42 109 132 147 160 169 167 180 175 145 90 184 176 181 182 189 193 194 194
15 33 38 45 53 55 58 61 66 65 76 72 66 1 353 188 180 184 190 201 208 207
12 36 46 52 57 54 55 56 63 59 55 41 18 3 26 69 72 77 61 48 63 94
6 36 49 58 58 66 57 56 54 51 41 32 35 49 73 83 81 75 63 56 51 58
1 15 41 54 60 78 77 64 58 50 43 33 28 44 68 85 85 80 72 59 55 54
16 18 27 41 31 62 68 74 71 63 52 37 38 35 53 77 93 92 82 67 58 53
11 34 20 44 34 52 62 73 69 64 58 52 32 45 53 58 63 86 86 69 60 49